Find STARLINK-37527

NORAD ID: 68895 Constellation: starlink operational
LEOCIRCULARRETROGRADE

Live-Position

3D-Globus wird geladen...

Über STARLINK-37527

Beschreibung wird geladen...

Nächste Überflüge

Passes for default location (London). Set your location on the main map for personalized predictions.

Höhenverlauf

Loading altitude history...

Zweizeiliger Elementsatz

1 68895U 26097A 26125.50001156 -.02352124 15120-2 -66266-2 0 9994
2 68895 97.2881 320.4850 0001631 83.5086 125.9394 15.93673307 2061
Epoch: 5. Mai 2026 • Age: 8 hours